| time (UTC) | temp C | wind direction | speed KPH | gust KPH | rain 1hr cm | rain 24hr cm | rain mn cm | humidity % | barometer mb |
| 20260505100039 | 2 | 171 | 1.6 | 6.4 | 0.00 | 0.05 | 0.05 | 86 | 1026.5 |
| 20260505094538 | 2 | 150 | 1.6 | 6.4 | 0.00 | 0.05 | 0.05 | 86 | 1026.2 |
| 20260505093038 | 2 | 153 | 1.6 | 6.4 | 0.00 | 0.05 | 0.05 | 86 | 1026.2 |
| 20260505091538 | 2 | 142 | 1.6 | 6.4 | 0.00 | 0.05 | 0.05 | 87 | 1026.3 |
| 20260505090035 | 2 | 198 | 0.0 | 3.2 | 0.00 | 0.05 | 0.05 | 87 | 1026.4 |
| 20260505084552 | 3 | 153 | 1.6 | 6.4 | 0.00 | 0.05 | 0.05 | 87 | 1026.5 |
| 20260505083053 | 3 | 94 | 0.0 | 4.8 | 0.00 | 0.05 | 0.05 | 87 | 1026.7 |
| 20260505081551 | 3 | 108 | 0.0 | 6.4 | 0.00 | 0.05 | 0.05 | 87 | 1026.9 |
| 20260505080043 | 3 | 165 | 0.0 | 8.0 | 0.00 | 0.05 | 0.05 | 86 | 1026.9 |
| 20260505074531 | 3 | 146 | 0.0 | 9.7 | 0.00 | 0.05 | 0.05 | 86 | 1026.9 |
| 20260505073040 | 3 | 149 | 1.6 | 4.8 | 0.00 | 0.05 | 0.05 | 88 | 1026.9 |
| 20260505071541 | 4 | 162 | 1.6 | 6.4 | 0.00 | 0.05 | 0.05 | 88 | 1027.0 |
| 20260505070039 | 4 | 145 | 0.0 | 4.8 | 0.00 | 0.05 | 0.05 | 90 | 1027.0 |
| 20260505064529 | 5 | 143 | 0.0 | 4.8 | 0.00 | 0.05 | 0.05 | 90 | 1027.0 |
| 20260505063036 | 6 | 160 | 0.0 | 4.8 | 0.00 | 0.05 | 0.05 | 93 | 1027.0 |
| 20260505061530 | 6 | 162 | 0.0 | 3.2 | 0.00 | 0.05 | 0.05 | 93 | 1026.8 |
| 20260505060127 | 6 | 162 | 0.0 | 6.4 | 0.00 | 0.05 | 0.05 | 93 | 1027.0 |
| 20260505054528 | 7 | 146 | 0.0 | 0.0 | 0.00 | 0.05 | 0.05 | 91 | 1026.9 |
| 20260505053025 | 7 | 167 | 0.0 | 3.2 | 0.00 | 0.05 | 0.05 | 90 | 1026.8 |
| 20260505051525 | 8 | 124 | 0.0 | 4.8 | 0.00 | 0.05 | 0.05 | 87 | 1026.8 |
| 20260505041521 | 15 | 45 | 0.0 | 0.0 | 0.00 | 0.05 | 0.05 | 70 | 1026.9 |
| 20260505040022 | 15 | 43 | 0.0 | 1.6 | 0.00 | 0.05 | 0.05 | 70 | 1027.1 |
| 20260505034517 | 14 | 297 | 0.0 | 3.2 | 0.00 | 0.05 | 0.05 | 69 | 1027.1 |
| 20260505033018 | 15 | 309 | 0.0 | 3.2 | 0.00 | 0.05 | 0.05 | 69 | 1027.0 |
| 20260505031515 | 15 | 331 | 0.0 | 0.0 | 0.00 | 0.05 | 0.05 | 69 | 1027.1 |
| 20260505030012 | 15 | 328 | 0.0 | 0.0 | 0.00 | 0.05 | 0.05 | 70 | 1027.3 |
| 20260505024511 | 15 | 4 | 0.0 | 1.6 | 0.00 | 0.05 | 0.05 | 70 | 1027.4 |
| 20260505023008 | 15 | 342 | 0.0 | 1.6 | 0.00 | 0.05 | 0.05 | 71 | 1027.5 |
| 20260505021504 | 14 | 1 | 0.0 | 0.0 | 0.00 | 0.05 | 0.05 | 72 | 1027.8 |
| 20260505014610 | 13 | 310 | 0.0 | 4.8 | 0.00 | 0.05 | 0.05 | 75 | 1028.3 |
| 20260505013057 | 13 | 314 | 0.0 | 4.8 | 0.00 | 0.05 | 0.05 | 75 | 1028.5 |
| 20260505011556 | 12 | 313 | 0.0 | 0.0 | 0.00 | 0.05 | 0.05 | 78 | 1028.5 |
| 20260505010055 | 11 | 326 | 0.0 | 1.6 | 0.00 | 0.05 | 0.05 | 82 | 1028.8 |
| 20260505004549 | 11 | 334 | 0.0 | 3.2 | 0.00 | 0.05 | 0.05 | 84 | 1029.2 |
| 20260505003053 | 10 | 323 | 0.0 | 1.6 | 0.00 | 0.05 | 0.05 | 86 | 1029.4 |
| 20260505001538 | 10 | 349 | 0.0 | 4.8 | 0.00 | 0.05 | 0.05 | 88 | 1029.5 |
| 20260505000035 | 10 | 311 | 0.0 | 6.4 | 0.00 | 0.05 | 0.05 | 89 | 1030.1 |
| 20260504234528 | 9 | 358 | 0.0 | 3.2 | 0.00 | 0.05 | 0.05 | 92 | 1030.1 |
| 20260504233024 | 8 | 328 | 0.0 | 0.0 | 0.00 | 0.05 | 0.05 | 94 | 1030.3 |
| 20260504231520 | 7 | 11 | 0.0 | 0.0 | 0.00 | 0.05 | 0.05 | 96 | 1030.5 |
| 20260504230017 | 7 | 272 | 0.0 | 0.0 | 0.00 | 0.05 | 0.05 | 98 | 1030.7 |
| 20260504224517 | 6 | 271 | 0.0 | 0.0 | 0.00 | 0.05 | 0.05 | 99 | 1030.9 |
| 20260504223012 | 5 | 234 | 0.0 | 0.0 | 0.03 | 0.05 | 0.05 | 99 | 1031.0 |
| 20260504221505 | 4 | 211 | 0.0 | 1.6 | 0.03 | 0.05 | 0.05 | 99 | 1031.3 |
| 20260504220004 | 3 | 210 | 0.0 | 0.0 | 0.03 | 0.05 | 0.05 | 99 | 1031.3 |
| 20260504214558 | 2 | 210 | 0.0 | 1.6 | 0.03 | 0.05 | 0.05 | 99 | 1031.5 |
| 20260504213056 | 1 | 141 | 0.0 | 3.2 | 0.00 | 0.03 | 0.03 | 99 | 1031.6 |
| 20260504211637 | 0 | 168 | 0.0 | 0.0 | 0.00 | 0.03 | 0.03 | 98 | 1031.9 |
| 20260504210053 | 0 | 139 | 0.0 | 1.6 | 0.00 | 0.03 | 0.03 | 98 | 1031.8 |
| 20260504204550 | 0 | 147 | 0.0 | 1.6 | 0.00 | 0.03 | 0.03 | 98 | 1031.9 |
| 20260504203050 | 0 | 157 | 0.0 | 3.2 | 0.00 | 0.03 | 0.03 | 97 | 1031.9 |
| 20260504201552 | 0 | 148 | 0.0 | 4.8 | 0.00 | 0.03 | 0.03 | 98 | 1031.9 |
| 20260504200052 | 0 | 145 | 0.0 | 3.2 | 0.00 | 0.05 | 0.03 | 97 | 1032.0 |
| 20260504194554 | 0 | 164 | 0.0 | 4.8 | 0.00 | 0.05 | 0.03 | 98 | 1032.1 |
| 20260504193047 | 0 | 214 | 0.0 | 4.8 | 0.00 | 0.05 | 0.03 | 98 | 1031.9 |
| 20260504191603 | 0 | 162 | 1.6 | 4.8 | 0.00 | 0.05 | 0.03 | 97 | 1032.0 |
| 20260504190050 | 0 | 137 | 1.6 | 6.4 | 0.00 | 0.05 | 0.03 | 97 | 1032.2 |
| 20260504184549 | 0 | 154 | 1.6 | 4.8 | 0.00 | 0.05 | 0.03 | 97 | 1032.3 |
| 20260504183039 | 0 | 164 | 0.0 | 3.2 | 0.00 | 0.05 | 0.03 | 97 | 1032.3 |
| 20260504181538 | 0 | 152 | 0.0 | 3.2 | 0.00 | 0.05 | 0.03 | 97 | 1032.3 |
| 20260504180036 | 0 | 188 | 0.0 | 1.6 | 0.00 | 0.05 | 0.03 | 97 | 1032.3 |
| 20260504174537 | 0 | 127 | 0.0 | 3.2 | 0.00 | 0.05 | 0.03 | 97 | 1032.2 |
| 20260504173033 | 0 | 160 | 0.0 | 3.2 | 0.00 | 0.05 | 0.03 | 97 | 1032.3 |
| 20260504171531 | 0 | 155 | 0.0 | 6.4 | 0.00 | 0.05 | 0.03 | 97 | 1032.2 |